Location: Chevoux
(46.3801°N, 4.9476°E)
Time: 12:31:55
(UTC+00:00)

Cosmos 1812 Rocket - Pass Details

Date: 28 January 2021
Orbit: 604 x 633 km, 82.5° (Epoch: 06 March)

Event Time Altitude Azimuth Distance (km) Brightness Sun altitude
Rises 17:45:43 0° 350° (N) 2,899 7.0 -11.7°
Reaches altitude 10° 17:47:57 10° 350° (N) 1,984 6.1 -12.0°
Maximum altitude 17:52:21 88° 260° (W) 618 3.5 -12.8°
Drops below altitude 10° 17:56:41 10° 173° (S) 1,953 6.2 -13.5°
Sets 17:58:52 0° 174° (S) 2,850 7.0 -13.9°
